Milton, FL

10:17 AM CDT on May 25, 2017 (GMT -0500)
Whiting Field Naval Air Station (South)

Weather History for KNDZ - September, 2013

Change the Weather History Date:

Tuesday, September 3, 2013

  Actual Average (KNSE) Record (KNSE)
Temperature  
Mean Temperature 78 °F -  
Max Temperature 90 °F 86 °F 95 °F (1997)
Min Temperature 69 °F 69 °F 69 °F (1998)
Cooling Degree Days 14    
Growing Degree Days 28 (Base 50)    
Moisture  
Dew Point 71 °F    
Average Humidity 86    
Maximum Humidity 94    
Minimum Humidity 65    
Precipitation  
Precipitation 2.01 in - - ()
Sea Level Pressure  
Sea Level Pressure 29.95 in    
Wind  
Wind Speed 5 mph (ENE)    
Max Wind Speed 26 mph    
Max Gust Speed 34 mph    
Visibility 7 miles    
Events Fog , Rain , Thunderstorm    
Averages and records for this station are not official NWS values.
T = Trace of Precipitation, MM = Missing Value Source: NWS Daily Summary

Daily Weather History Graph

Daily Weather History Graph

Search for Another Location

Airport or City:

Trip Planner

Search our weather history database for the weather conditions in past years. The results will help you decide how hot, cold, wet, or windy it might be!

Date:

Astronomy

Sep. 03, 2013 Rise Set
Actual Time 6:25 AM CDT 7:08 PM CDT
Civil Twilight 6:01 AM CDT 7:32 PM CDT
Nautical Twilight 5:32 AM CDT 8:01 PM CDT
Astronomical Twilight 5:03 AM CDT 8:30 PM CDT
Moon 4:42 AM CDT (9/3) 5:53 PM CDT (9/3)
Length of Visible Light 13h 31m
Length of Day
12h 42m
Waning Crescent, 3% of the Moon is Illuminated
Sep 3
Waning Crescent
Sep 5
New
Sep 12
First Quarter
Sep 19
Full
Sep 26
Last Quarter

Hourly Weather History & Observations

Time (CDT) Temp. Heat Index Dew Point Humidity Pressure Visibility Wind Dir Wind Speed Gust Speed Precip Events Conditions
12:56 AM - - - N/A% 29.93 in - North - - N/A   Unknown
1:56 AM - - - N/A% 29.93 in - North - - N/A   Unknown
2:56 AM - - - N/A% 29.94 in - North - - N/A   Unknown
3:56 AM - - - N/A% 29.93 in - North - - N/A   Unknown
4:56 AM - - - N/A% 29.94 in - North - - N/A   Unknown
5:56 AM 71.6 °F - 69.8 °F 94% 29.95 in 6.0 mi Calm Calm - N/A   Scattered Clouds
6:56 AM 71.6 °F - 69.8 °F 94% 29.97 in 7.0 mi Calm Calm - N/A   Scattered Clouds
7:56 AM 78.1 °F - 74.1 °F 88% 29.97 in 10.0 mi SW 5.8 mph - N/A   Mostly Cloudy
8:56 AM 84.0 °F 93.7 °F 77.0 °F 79% 29.98 in 10.0 mi Calm Calm - N/A   Mostly Cloudy
9:56 AM 86.0 °F 96.9 °F 77.0 °F 74% 29.99 in 10.0 mi West 4.6 mph - N/A   Mostly Cloudy
10:56 AM 87.1 °F 98.8 °F 77.0 °F 72% 30.00 in 10.0 mi Calm Calm - N/A   Mostly Cloudy
11:56 AM 86.0 °F 96.9 °F 77.0 °F 74% 29.97 in 10.0 mi South 4.6 mph - N/A   Mostly Cloudy
12:56 PM 88.0 °F 97.5 °F 75.0 °F 65% 29.94 in 10.0 mi SSW 4.6 mph - N/A   Mostly Cloudy
1:42 PM 84.2 °F 92.3 °F 75.2 °F 74% 29.94 in 7.0 mi Variable 4.6 mph - 0.02 in Rain , Thunderstorm Light Thunderstorms and Rain
1:48 PM 78.8 °F - 69.8 °F 74% 29.96 in 0.5 mi ESE 12.7 mph 32.2 mph 0.43 in Rain , Thunderstorm Heavy Thunderstorms and Rain
1:56 PM 78.1 °F - 70.0 °F 76% 29.96 in 0.8 mi ESE 17.3 mph - 0.65 in Rain , Thunderstorm Heavy Thunderstorms and Rain
1:59 PM 77.0 °F - 69.8 °F 78% 29.96 in 0.5 mi East 18.4 mph 23.0 mph 0.16 in Rain , Thunderstorm Heavy Thunderstorms and Rain
2:07 PM 75.2 °F - 69.8 °F 83% 29.95 in 0.5 mi ENE 26.5 mph 34.5 mph 0.33 in Rain , Thunderstorm Heavy Thunderstorms and Rain
2:28 PM 73.4 °F - 69.8 °F 88% 29.99 in 1.0 mi NE 20.7 mph 31.1 mph 0.53 in Rain , Thunderstorm Heavy Thunderstorms and Rain
2:36 PM 73.4 °F - 69.8 °F 88% 30.01 in 0.5 mi ESE 12.7 mph 26.5 mph 0.70 in Fog , Rain , Thunderstorm Heavy Thunderstorms and Rain
2:56 PM 71.1 °F - 69.1 °F 93% 30.01 in 0.5 mi Variable 4.6 mph - 1.07 in Fog , Rain , Thunderstorm Heavy Thunderstorms and Rain
3:12 PM 69.8 °F - 68.0 °F 94% 29.99 in 1.0 mi NNW 5.8 mph - 0.23 in Rain , Thunderstorm Heavy Thunderstorms and Rain
3:27 PM 71.6 °F - 68.0 °F 88% 29.97 in 6.0 mi NNW 8.1 mph - 0.27 in Rain , Thunderstorm Light Thunderstorms and Rain
3:56 PM 72.0 °F - 69.1 °F 91% 29.94 in 7.0 mi NNE 3.5 mph - 0.28 in Rain , Thunderstorm Light Thunderstorms and Rain
4:02 PM 71.6 °F - 69.8 °F 94% 29.95 in 10.0 mi SSE 3.5 mph - 0.00 in Thunderstorm Mostly Cloudy
4:18 PM 71.6 °F - 69.8 °F 94% 29.95 in 10.0 mi East 5.8 mph - 0.00 in Thunderstorm Mostly Cloudy
4:42 PM 71.6 °F - 69.8 °F 94% 29.93 in 10.0 mi Calm Calm - 0.00 in Rain , Thunderstorm Light Thunderstorms and Rain
4:56 PM 72.0 °F - 70.0 °F 93% 29.92 in 10.0 mi NNE 4.6 mph - 0.00 in Rain , Thunderstorm Light Thunderstorms and Rain
5:06 PM 73.4 °F - 69.8 °F 88% 29.92 in 7.0 mi ENE 3.5 mph - 0.01 in Rain Light Rain
5:38 PM 73.4 °F - 69.8 °F 88% 29.92 in 10.0 mi NW 6.9 mph - 0.01 in   Mostly Cloudy
5:56 PM 73.9 °F - 69.1 °F 85% 29.89 in 10.0 mi NNE 4.6 mph - 0.01 in   Mostly Cloudy
6:56 PM 73.0 °F - 70.0 °F 90% 29.93 in 10.0 mi WNW 3.5 mph - N/A   Mostly Cloudy
7:56 PM 72.0 °F - 70.0 °F 93% 29.92 in 10.0 mi Calm Calm - N/A   Mostly Cloudy
8:56 PM 71.1 °F - 69.1 °F 93% 29.93 in 10.0 mi Calm Calm - N/A   Mostly Cloudy
9:56 PM 72.0 °F - 69.1 °F 91% 29.95 in 10.0 mi ENE 5.8 mph - N/A   Mostly Cloudy
10:56 PM 72.0 °F - 69.1 °F 91% 29.96 in 10.0 mi Calm Calm - N/A   Mostly Cloudy
11:56 PM 72.0 °F - 68.0 °F 87% 29.95 in 10.0 mi Calm Calm - N/A   Mostly Cloudy